QPF
0.01 0.01 0.02 0.02 0.02 0.03 0.05 0.05 0.04 0.02 0.01 0.01 0.02 0.02 0.02 0.02 0.03 0.04 0.06 0.08 0.08 0.09 0.09 0.08 0.08 0.08 0.07 0.06 0.05 0.05 0.06 0.06 0.06 0.06 0.06 0.07 0.07 0.07 0.06 0.07 0.07 0.06 0.05
0.01 0.01 0.01 0.01 0.02 0.04 0.05 0.04 0.03 0.02 0.02 0.02 0.04 0.03 0.03 0.03 0.03 0.03 0.04 0.06 0.10 0.10 0.10 0.09 0.09 0.08 0.07 0.06 0.06 0.06 0.05 0.04 0.04 0.04 0.03 0.04 0.05 0.04 0.04 0.05 0.06 0.07 0.06
0.01 0.01 0.01 0.01 0.03 0.05 0.03 0.03 0.03 0.04 0.04 0.04 0.04 0.03 0.02 0.02 0.03 0.03 0.02 0.02 0.03 0.05 0.06 0.07 0.08 0.08 0.08 0.07 0.06 0.05 0.04 0.04 0.05 0.03 0.02 0.03 0.04 0.03 0.03 0.04 0.04 0.05 0.06
0.01 0.01 0.02 0.02 0.03 0.03 0.04 0.04 0.03 0.03 0.03 0.03 0.03 0.03 0.03 0.03 0.04 0.04 0.03 0.03 0.03 0.03 0.04 0.06 0.07 0.09 0.11 0.10 0.08 0.07 0.05 0.04 0.03 0.04 0.03 0.02 0.02 0.02 0.02 0.03 0.03 0.04 0.05
0.01 0.02 0.03 0.02 0.03 0.04 0.04 0.04 0.03 0.03 0.03 0.03 0.03 0.02 0.02 0.03 0.05 0.05 0.04 0.03 0.03 0.02 0.02 0.02 0.03 0.06 0.09 0.09 0.06 0.06 0.05 0.03 0.03 0.04 0.02 0.02 0.02 0.02 0.02 0.03 0.02 0.03 0.03
0.02 0.02 0.03 0.03 0.04 0.04 0.05 0.06 0.06 0.04 0.03 0.02 0.02 0.02 0.02 0.03 0.05 0.05 0.04 0.04 0.04 0.02 0.03 0.02 0.01 0.02 0.04 0.06 0.05 0.05 0.05 0.04 0.04 0.03 0.02 0.02 0.02 0.02 0.02 0.02 0.02 0.02 0.02
0.03 0.03 0.04 0.03 0.04 0.04 0.04 0.04 0.05 0.05 0.04 0.03 0.03 0.04 0.04 0.04 0.04 0.03 0.03 0.03 0.03 0.02 0.04 0.03 0.01 0.02 0.02 0.04 0.04 0.05 0.05 0.05 0.06 0.04 0.03 0.03 0.02 0.02 0.01 0.01 0.01 0.02 0.02
0.04 0.04 0.04 0.04 0.03 0.03 0.03 0.04 0.05 0.05 0.04 0.03 0.04 0.05 0.04 0.04 0.03 0.02 0.01 0.02 0.03 0.02 0.03 0.03 0.02 0.02 0.01 0.02 0.03 0.03 0.05 0.06 0.06 0.05 0.03 0.03 0.03 0.03 0.02 0.02 0.01 0.01 0.02
0.06 0.06 0.05 0.04 0.04 0.04 0.04 0.04 0.04 0.04 0.04 0.04 0.04 0.05 0.04 0.03 0.02 0.01 0.01 0.01 0.01 0.02 0.02 0.02 0.02 0.02 0.01 0.02 0.02 0.02 0.02 0.03 0.05 0.06 0.07 0.05 0.04 0.03 0.03 0.03 0.03 0.03 0.03
0.08 0.07 0.05 0.05 0.04 0.05 0.04 0.03 0.04 0.04 0.05 0.04 0.04 0.03 0.02 0.02 0.02 0.01 0.00 0.00 0.00 0.01 0.01 0.02 0.02 0.01 0.02 0.02 0.02 0.03 0.01 0.01 0.02 0.05 0.06 0.08 0.08 0.06 0.05 0.04 0.04 0.05 0.05
0.06 0.05 0.05 0.05 0.04 0.05 0.04 0.03 0.04 0.04 0.04 0.04 0.03 0.01 0.01 0.01 0.01 0.02 0.01 0.00 0.00 0.00 0.01 0.02 0.01 0.01 0.03 0.02 0.01 0.02 0.03 0.03 0.01 0.02 0.03 0.06 0.08 0.08 0.08 0.06 0.06 0.06 0.06
0.03 0.04 0.05 0.04 0.03 0.04 0.05 0.04 0.04 0.04 0.04 0.03 0.02 0.02 0.02 0.01 0.01 0.01 0.01 0.01 0.01 0.00 0.01 0.01 0.00 0.01 0.02 0.01 0.01 0.01 0.03 0.04 0.03 0.02 0.01 0.02 0.04 0.06 0.07 0.07 0.07 0.08 0.07
0.02 0.03 0.04 0.04 0.03 0.03 0.04 0.06 0.04 0.03 0.03 0.03 0.03 0.02 0.02 0.02 0.01 0.01 0.01 0.01 0.01 0.01 0.00 0.00 0.00 0.00 0.01 0.01 0.01 0.02 0.02 0.02 0.02 0.02 0.01 0.01 0.01 0.02 0.05 0.09 0.11 0.11 0.10
0.02 0.02 0.03 0.03 0.03 0.03 0.04 0.05 0.04 0.03 0.03 0.02 0.02 0.02 0.02 0.01 0.01 0.01 0.02 0.01 0.01 0.00 0.00 0.00 0.00 0.00 0.00 0.00 0.01 0.01 0.01 0.01 0.02 0.02 0.02 0.02 0.01 0.01 0.02 0.04 0.06 0.09 0.10
0.01 0.02 0.02 0.03 0.02 0.02 0.03 0.05 0.05 0.04 0.03 0.02 0.02 0.02 0.01 0.01 0.01 0.01 0.03 0.02 0.01 0.01 0.00 0.00 0.00 0.00 0.00 0.00 0.00 0.00 0.00 0.00 0.00 0.01 0.01 0.01 0.01 0.01 0.01 0.01 0.02 0.02 0.04
0.01 0.01 0.01 0.02 0.02 0.02 0.02 0.03 0.03 0.05 0.05 0.05 0.04 0.03 0.02 0.01 0.01 0.01 0.02 0.02 0.01 0.01 0.00 0.00 0.00 0.00 0.00 0.00 0.00 0.01 0.01 0.01 0.01 0.01 0.01 0.01 0.01 0.01 0.01 0.01 0.02 0.02 0.02
0.01 0.01 0.02 0.03 0.03 0.02 0.01 0.01 0.02 0.04 0.04 0.04 0.03 0.03 0.02 0.02 0.01 0.01 0.01 0.02 0.01 0.01 0.00 0.00 0.00 0.00 0.00 0.00 0.00 0.00 0.00 0.00 0.00 0.01 0.01 0.01 0.01 0.01 0.01 0.01 0.01 0.02 0.01
0.01 0.02 0.04 0.04 0.03 0.02 0.01 0.02 0.02 0.02 0.04 0.04 0.03 0.03 0.03 0.03 0.02 0.02 0.01 0.01 0.01 0.01 0.01 0.00 0.00 0.00 0.00 0.00 0.00 0.00 0.00 0.00 0.00 0.00 0.00 0.01 0.01 0.01 0.01 0.01 0.00 0.01 0.01
0.03 0.05 0.06 0.04 0.02 0.01 0.01 0.02 0.02 0.02 0.02 0.03 0.03 0.03 0.04 0.04 0.03 0.02 0.01 0.01 0.01 0.01 0.01 0.00 0.00 0.00 0.00 0.00 0.00 0.00 0.00 0.00 0.00 0.00 0.00 0.01 0.01 0.01 0.01 0.01 0.00 0.01 0.01
0.05 0.04 0.02 0.01 0.01 0.01 0.02 0.02 0.02 0.02 0.02 0.02 0.03 0.03 0.03 0.03 0.03 0.02 0.02 0.01 0.01 0.01 0.01 0.01 0.00 0.00 0.00 0.00 0.00 0.00 0.00 0.00 0.00 0.01 0.01 0.01 0.01 0.01 0.01 0.01 0.01 0.01 0.02
0.03 0.02 0.01 0.02 0.03 0.03 0.03 0.02 0.02 0.02 0.02 0.02 0.02 0.03 0.03 0.03 0.03 0.03 0.02 0.02 0.02 0.02 0.01 0.02 0.01 0.00 0.00 0.01 0.01 0.01 0.00 0.00 0.00 0.01 0.01 0.01 0.01 0.01 0.01 0.01 0.01 0.02 0.02
0.03 0.03 0.04 0.05 0.05 0.04 0.04 0.03 0.03 0.03 0.03 0.03 0.02 0.03 0.04 0.04 0.03 0.03 0.03 0.03 0.03 0.03 0.02 0.03 0.02 0.02 0.01 0.01 0.01 0.01 0.01 0.01 0.01 0.01 0.01 0.01 0.01 0.01 0.01 0.01 0.02 0.02 0.02
0.03 0.05 0.06 0.07 0.06 0.05 0.04 0.04 0.03 0.02 0.02 0.02 0.02 0.02 0.03 0.03 0.03 0.02 0.03 0.04 0.03 0.03 0.03 0.03 0.02 0.01 0.01 0.01 0.02 0.01 0.01 0.01 0.01 0.01 0.02 0.01 0.01 0.01 0.01 0.01 0.01 0.02 0.02
0.03 0.04 0.05 0.05 0.05 0.04 0.03 0.03 0.03 0.02 0.02 0.01 0.02 0.02 0.02 0.02 0.03 0.02 0.02 0.02 0.03 0.03 0.04 0.04 0.03 0.02 0.02 0.01 0.02 0.02 0.02 0.02 0.02 0.01 0.01 0.01 0.01 0.01 0.01 0.01 0.01 0.02 0.02
0.06 0.05 0.05 0.04 0.04 0.03 0.03 0.02 0.02 0.02 0.02 0.02 0.01 0.01 0.02 0.02 0.03 0.04 0.03 0.03 0.02 0.02 0.03 0.03 0.03 0.04 0.04 0.03 0.03 0.03 0.03 0.03 0.02 0.01 0.02 0.01 0.01 0.01 0.00 0.00 0.00 0.00 0.01
0.10 0.07 0.06 0.06 0.04 0.04 0.03 0.03 0.04 0.04 0.03 0.02 0.02 0.02 0.02 0.03 0.03 0.04 0.04 0.05 0.05 0.04 0.04 0.04 0.04 0.04 0.05 0.06 0.06 0.05 0.05 0.04 0.03 0.02 0.01 0.02 0.01 0.01 0.01 0.00 0.00 0.00 0.01
MSLP
1011.62 1011.60 1011.58 1011.56 1011.55 1011.58 1011.65 1011.76 1011.90 1012.05 1012.19 1012.30 1012.37 1012.40 1012.41 1012.43 1012.46 1012.53 1012.66 1012.84 1013.07 1013.32 1013.57 1013.81 1014.01 1014.17 1014.30 1014.39 1014.46 1014.54 1014.64 1014.79 1015.00 1015.28 1015.62 1016.00 1016.41 1016.81 1017.17 1017.48 1017.72 1017.90 1018.03
1011.93 1011.90 1011.89 1011.90 1011.96 1012.06 1012.20 1012.39 1012.60 1012.82 1013.03 1013.20 1013.32 1013.40 1013.44 1013.46 1013.48 1013.52 1013.58 1013.69 1013.82 1013.97 1014.13 1014.28 1014.40 1014.49 1014.56 1014.61 1014.67 1014.74 1014.86 1015.03 1015.27 1015.58 1015.94 1016.33 1016.72 1017.09 1017.40 1017.66 1017.85 1018.00 1018.12
1012.26 1012.21 1012.19 1012.22 1012.30 1012.43 1012.61 1012.83 1013.08 1013.34 1013.58 1013.79 1013.95 1014.06 1014.12 1014.14 1014.15 1014.14 1014.16 1014.19 1014.24 1014.32 1014.41 1014.51 1014.60 1014.68 1014.76 1014.83 1014.91 1015.02 1015.16 1015.36 1015.61 1015.91 1016.25 1016.60 1016.95 1017.26 1017.53 1017.75 1017.93 1018.07 1018.19
1012.60 1012.53 1012.51 1012.54 1012.61 1012.74 1012.92 1013.13 1013.38 1013.63 1013.87 1014.08 1014.25 1014.37 1014.44 1014.47 1014.46 1014.43 1014.39 1014.37 1014.38 1014.41 1014.47 1014.56 1014.67 1014.79 1014.91 1015.04 1015.18 1015.34 1015.52 1015.72 1015.95 1016.21 1016.49 1016.77 1017.04 1017.30 1017.52 1017.72 1017.88 1018.04 1018.19
1012.94 1012.87 1012.84 1012.87 1012.93 1013.04 1013.19 1013.36 1013.55 1013.76 1013.96 1014.15 1014.31 1014.43 1014.50 1014.53 1014.51 1014.47 1014.41 1014.36 1014.34 1014.35 1014.41 1014.52 1014.66 1014.84 1015.04 1015.25 1015.45 1015.65 1015.84 1016.03 1016.22 1016.41 1016.60 1016.80 1016.99 1017.18 1017.36 1017.54 1017.71 1017.88 1018.05
1013.27 1013.20 1013.19 1013.21 1013.27 1013.36 1013.46 1013.58 1013.71 1013.85 1014.00 1014.14 1014.28 1014.39 1014.46 1014.49 1014.48 1014.44 1014.37 1014.31 1014.27 1014.27 1014.33 1014.46 1014.64 1014.87 1015.13 1015.39 1015.64 1015.87 1016.06 1016.22 1016.36 1016.47 1016.58 1016.68 1016.80 1016.93 1017.07 1017.23 1017.40 1017.59 1017.78
1013.56 1013.51 1013.52 1013.56 1013.63 1013.70 1013.77 1013.84 1013.91 1013.99 1014.08 1014.19 1014.30 1014.40 1014.48 1014.53 1014.53 1014.49 1014.43 1014.35 1014.29 1014.27 1014.31 1014.42 1014.61 1014.85 1015.13 1015.42 1015.69 1015.92 1016.10 1016.23 1016.31 1016.36 1016.40 1016.44 1016.50 1016.58 1016.70 1016.85 1017.02 1017.21 1017.40
1013.81 1013.79 1013.83 1013.89 1013.98 1014.05 1014.11 1014.15 1014.18 1014.22 1014.28 1014.35 1014.45 1014.56 1014.66 1014.73 1014.75 1014.72 1014.64 1014.55 1014.45 1014.38 1014.37 1014.43 1014.56 1014.77 1015.02 1015.28 1015.54 1015.76 1015.92 1016.03 1016.08 1016.10 1016.11 1016.12 1016.15 1016.22 1016.32 1016.46 1016.62 1016.80 1016.98
1014.04 1014.03 1014.08 1014.18 1014.28 1014.37 1014.44 1014.48 1014.50 1014.52 1014.56 1014.64 1014.75 1014.87 1014.99 1015.09 1015.13 1015.11 1015.02 1014.88 1014.72 1014.58 1014.47 1014.43 1014.47 1014.59 1014.77 1014.97 1015.18 1015.37 1015.52 1015.63 1015.69 1015.72 1015.74 1015.77 1015.82 1015.89 1016.00 1016.13 1016.27 1016.43 1016.57
1014.23 1014.22 1014.28 1014.39 1014.51 1014.62 1014.71 1014.76 1014.79 1014.82 1014.87 1014.97 1015.09 1015.25 1015.40 1015.52 1015.58 1015.56 1015.45 1015.27 1015.03 1014.79 1014.57 1014.40 1014.31 1014.31 1014.37 1014.49 1014.65 1014.80 1014.95 1015.07 1015.17 1015.26 1015.34 1015.42 1015.52 1015.63 1015.75 1015.88 1016.00 1016.12 1016.22
1014.40 1014.36 1014.41 1014.52 1014.64 1014.77 1014.86 1014.93 1014.98 1015.03 1015.11 1015.22 1015.37 1015.56 1015.74 1015.88 1015.96 1015.93 1015.80 1015.57 1015.27 1014.93 1014.59 1014.29 1014.07 1013.93 1013.88 1013.91 1014.00 1014.12 1014.27 1014.43 1014.59 1014.75 1014.91 1015.07 1015.24 1015.40 1015.54 1015.67 1015.78 1015.86 1015.93
1014.52 1014.45 1014.47 1014.55 1014.67 1014.79 1014.89 1014.96 1015.02 1015.09 1015.18 1015.31 1015.48 1015.68 1015.88 1016.04 1016.12 1016.10 1015.95 1015.69 1015.34 1014.93 1014.50 1014.10 1013.76 1013.51 1013.35 1013.29 1013.31 1013.41 1013.55 1013.74 1013.96 1014.19 1014.44 1014.68 1014.91 1015.12 1015.30 1015.44 1015.54 1015.60 1015.64
1014.58 1014.48 1014.46 1014.52 1014.61 1014.70 1014.78 1014.85 1014.90 1014.96 1015.05 1015.18 1015.35 1015.55 1015.75 1015.91 1016.00 1015.98 1015.83 1015.57 1015.20 1014.75 1014.28 1013.82 1013.41 1013.08 1012.84 1012.70 1012.66 1012.72 1012.85 1013.04 1013.29 1013.57 1013.88 1014.18 1014.47 1014.72 1014.93 1015.08 1015.18 1015.24 1015.27
1014.58 1014.45 1014.41 1014.43 1014.48 1014.54 1014.59 1014.62 1014.64 1014.68 1014.74 1014.84 1014.98 1015.16 1015.34 1015.49 1015.57 1015.56 1015.44 1015.19 1014.84 1014.42 1013.95 1013.48 1013.04 1012.67 1012.38 1012.18 1012.08 1012.08 1012.17 1012.34 1012.58 1012.87 1013.18 1013.51 1013.83 1014.10 1014.34 1014.51 1014.63 1014.70 1014.76
1014.50 1014.38 1014.32 1014.31 1014.32 1014.34 1014.35 1014.33 1014.31 1014.30 1014.31 1014.36 1014.45 1014.58 1014.72 1014.84 1014.92 1014.92 1014.82 1014.62 1014.32 1013.95 1013.54 1013.10 1012.69 1012.31 1011.99 1011.75 1011.59 1011.52 1011.54 1011.64 1011.81 1012.05 1012.34 1012.64 1012.94 1013.23 1013.47 1013.67 1013.82 1013.95 1014.05
1014.38 1014.28 1014.23 1014.20 1014.19 1014.17 1014.12 1014.06 1013.98 1013.90 1013.85 1013.83 1013.86 1013.92 1014.01 1014.09 1014.15 1014.15 1014.08 1013.93 1013.71 1013.42 1013.08 1012.72 1012.35 1012.00 1011.67 1011.39 1011.17 1011.02 1010.93 1010.93 1011.00 1011.14 1011.34 1011.59 1011.85 1012.11 1012.36 1012.58 1012.78 1012.97 1013.15
1014.26 1014.20 1014.18 1014.15 1014.12 1014.07 1013.98 1013.86 1013.72 1013.58 1013.45 1013.36 1013.31 1013.30 1013.32 1013.36 1013.38 1013.38 1013.33 1013.23 1013.08 1012.87 1012.62 1012.34 1012.04 1011.72 1011.40 1011.10 1010.81 1010.57 1010.37 1010.24 1010.18 1010.19 1010.28 1010.42 1010.61 1010.83 1011.07 1011.32 1011.56 1011.82 1012.09
1014.20 1014.20 1014.21 1014.20 1014.16 1014.08 1013.95 1013.79 1013.59 1013.39 1013.19 1013.03 1012.91 1012.83 1012.78 1012.76 1012.75 1012.72 1012.68 1012.61 1012.51 1012.37 1012.20 1011.99 1011.75 1011.47 1011.17 1010.84 1010.51 1010.18 1009.87 1009.61 1009.41 1009.29 1009.24 1009.27 1009.38 1009.54 1009.75 1010.00 1010.28 1010.60 1010.94
1014.28 1014.34 1014.38 1014.38 1014.34 1014.23 1014.07 1013.86 1013.61 1013.36 1013.11 1012.89 1012.70 1012.56 1012.45 1012.37 1012.32 1012.26 1012.21 1012.15 1012.07 1011.98 1011.85 1011.70 1011.51 1011.27 1010.98 1010.65 1010.28 1009.88 1009.49 1009.12 1008.79 1008.54 1008.36 1008.28 1008.28 1008.36 1008.53 1008.76 1009.05 1009.39 1009.79
1014.56 1014.66 1014.72 1014.73 1014.67 1014.54 1014.34 1014.09 1013.80 1013.50 1013.21 1012.95 1012.72 1012.53 1012.37 1012.25 1012.14 1012.05 1011.97 1011.89 1011.81 1011.73 1011.63 1011.51 1011.34 1011.13 1010.87 1010.54 1010.15 1009.72 1009.27 1008.82 1008.40 1008.03 1007.74 1007.54 1007.43 1007.42 1007.51 1007.69 1007.94 1008.28 1008.68
1015.09 1015.21 1015.28 1015.27 1015.19 1015.02 1014.78 1014.48 1014.15 1013.82 1013.50 1013.21 1012.96 1012.74 1012.56 1012.40 1012.25 1012.12 1012.00 1011.89 1011.78 1011.68 1011.58 1011.46 1011.31 1011.12 1010.87 1010.55 1010.17 1009.74 1009.26 1008.76 1008.28 1007.83 1007.44 1007.12 1006.90 1006.78 1006.76 1006.84 1007.02 1007.29 1007.64
1015.86 1015.99 1016.04 1016.00 1015.88 1015.66 1015.37 1015.03 1014.67 1014.32 1013.98 1013.68 1013.42 1013.20 1013.00 1012.82 1012.64 1012.48 1012.31 1012.15 1012.00 1011.87 1011.73 1011.60 1011.45 1011.26 1011.03 1010.73 1010.37 1009.95 1009.47 1008.96 1008.43 1007.92 1007.45 1007.03 1006.69 1006.44 1006.28 1006.23 1006.28 1006.43 1006.69
1016.85 1016.95 1016.98 1016.90 1016.72 1016.46 1016.12 1015.74 1015.35 1014.98 1014.64 1014.34 1014.09 1013.87 1013.68 1013.49 1013.29 1013.10 1012.89 1012.69 1012.49 1012.30 1012.12 1011.96 1011.79 1011.59 1011.37 1011.09 1010.75 1010.35 1009.89 1009.38 1008.83 1008.27 1007.73 1007.21 1006.75 1006.36 1006.04 1005.82 1005.71 1005.71 1005.81
1017.97 1018.04 1018.03 1017.91 1017.68 1017.37 1016.99 1016.58 1016.17 1015.79 1015.46 1015.18 1014.94 1014.74 1014.56 1014.37 1014.17 1013.95 1013.71 1013.46 1013.21 1012.97 1012.74 1012.53 1012.32 1012.11 1011.88 1011.61 1011.29 1010.90 1010.45 1009.94 1009.39 1008.79 1008.18 1007.58 1007.00 1006.46 1005.98 1005.59 1005.29 1005.10 1005.04
1019.11 1019.16 1019.11 1018.95 1018.69 1018.34 1017.93 1017.51 1017.09 1016.72 1016.40 1016.13 1015.92 1015.74 1015.57 1015.40 1015.19 1014.95 1014.69 1014.40 1014.10 1013.80 1013.52 1013.26 1013.01 1012.76 1012.51 1012.23 1011.91 1011.53 1011.08 1010.57 1010.00 1009.38 1008.72 1008.04 1007.35 1006.69 1006.06 1005.50 1005.02 1004.65 1004.40
1020.18 1020.20 1020.12 1019.94 1019.66 1019.30 1018.89 1018.46 1018.05 1017.69 1017.40 1017.16 1016.97 1016.80 1016.65 1016.47 1016.27 1016.01 1015.72 1015.39 1015.05 1014.71 1014.37 1014.06 1013.76 1013.47 1013.18 1012.88 1012.54 1012.15 1011.70 1011.18 1010.60 1009.95 1009.26 1008.52 1007.76 1006.99 1006.25 1005.55 1004.91 1004.37 1003.96
Thickness
5766 5765 5765 5764 5764 5763 5762 5762 5760 5759 5759 5757 5756 5755 5754 5752 5751 5749 5749 5748 5747 5746 5745 5743 5741 5740 5738 5737 5735 5734 5733 5732 5730 5729 5728 5728 5726 5725 5724 5723 5723 5722 5721
5766 5766 5765 5765 5764 5763 5762 5762 5761 5759 5758 5757 5756 5755 5753 5752 5751 5749 5748 5747 5746 5745 5744 5743 5741 5739 5738 5736 5735 5733 5731 5730 5729 5728 5727 5726 5725 5724 5723 5722 5722 5721 5720
5767 5767 5766 5765 5764 5764 5763 5762 5761 5760 5758 5757 5755 5754 5753 5752 5750 5749 5748 5747 5746 5745 5743 5742 5740 5739 5737 5735 5734 5732 5731 5729 5728 5727 5726 5725 5724 5723 5722 5721 5721 5720 5719
5769 5768 5766 5765 5765 5764 5763 5762 5760 5759 5757 5756 5754 5754 5753 5751 5750 5750 5748 5747 5746 5744 5743 5741 5740 5738 5737 5735 5734 5732 5730 5729 5728 5726 5725 5724 5723 5722 5721 5720 5719 5718 5717
5770 5769 5767 5766 5765 5764 5763 5762 5760 5758 5756 5755 5754 5753 5753 5752 5751 5750 5749 5747 5746 5744 5743 5741 5740 5739 5737 5735 5734 5732 5730 5729 5727 5726 5725 5724 5723 5721 5720 5719 5718 5717 5716
5771 5770 5768 5767 5766 5764 5763 5761 5759 5758 5757 5755 5754 5753 5752 5751 5751 5749 5748 5747 5745 5744 5743 5741 5740 5738 5737 5735 5733 5732 5730 5729 5727 5726 5725 5724 5722 5721 5719 5718 5717 5716 5715
5771 5770 5769 5767 5766 5764 5763 5762 5760 5757 5755 5755 5752 5749 5750 5751 5750 5749 5748 5747 5746 5744 5743 5741 5740 5738 5736 5735 5733 5732 5730 5728 5727 5726 5725 5724 5722 5721 5719 5718 5717 5716 5715
5772 5771 5769 5767 5766 5764 5763 5761 5760 5756 5755 5755 5751 5746 5742 5744 5747 5749 5747 5746 5746 5744 5743 5741 5739 5738 5736 5734 5733 5731 5730 5728 5727 5725 5724 5724 5722 5721 5719 5718 5717 5716 5715
5773 5772 5770 5768 5767 5765 5763 5762 5760 5757 5753 5753 5753 5748 5741 5737 5740 5745 5746 5746 5745 5744 5742 5741 5739 5737 5735 5733 5732 5731 5729 5728 5726 5725 5724 5723 5721 5720 5719 5717 5716 5715 5714
5773 5772 5770 5769 5767 5765 5763 5762 5761 5759 5756 5752 5752 5751 5748 5745 5739 5737 5741 5743 5743 5743 5742 5741 5739 5737 5735 5733 5732 5730 5729 5727 5726 5724 5723 5722 5720 5718 5717 5716 5716 5715 5714
5772 5771 5770 5769 5767 5766 5764 5762 5760 5759 5757 5754 5751 5749 5747 5744 5742 5737 5734 5738 5740 5742 5741 5740 5738 5737 5735 5733 5732 5730 5729 5727 5725 5724 5722 5720 5719 5717 5716 5715 5714 5714 5713
5772 5771 5770 5768 5767 5766 5764 5763 5761 5759 5757 5755 5753 5751 5748 5744 5741 5738 5735 5734 5735 5738 5740 5739 5738 5736 5735 5733 5732 5730 5728 5726 5725 5723 5721 5719 5717 5716 5714 5713 5712 5712 5711
5770 5770 5770 5768 5766 5765 5764 5762 5760 5758 5757 5755 5753 5751 5750 5748 5746 5742 5737 5734 5733 5735 5736 5737 5737 5736 5734 5733 5731 5729 5728 5726 5724 5722 5720 5718 5716 5714 5713 5712 5710 5710 5709
5770 5770 5769 5768 5766 5765 5763 5762 5760 5758 5757 5755 5753 5752 5750 5749 5747 5744 5740 5735 5731 5731 5732 5734 5736 5735 5733 5732 5730 5728 5726 5724 5722 5720 5718 5716 5714 5713 5711 5709 5708 5707 5706
5771 5770 5769 5768 5766 5764 5762 5761 5759 5757 5756 5754 5752 5751 5749 5748 5746 5744 5742 5739 5733 5728 5729 5732 5732 5734 5732 5730 5729 5726 5724 5722 5720 5718 5716 5715 5713 5711 5709 5707 5705 5704 5702
5771 5769 5768 5766 5765 5763 5761 5759 5757 5756 5754 5752 5751 5749 5747 5746 5744 5743 5741 5739 5736 5732 5728 5731 5731 5731 5730 5729 5727 5724 5722 5721 5719 5717 5714 5712 5711 5709 5706 5704 5703 5701 5699
5770 5768 5766 5764 5762 5761 5759 5757 5755 5754 5752 5750 5749 5747 5745 5744 5742 5740 5738 5736 5734 5731 5728 5729 5729 5728 5726 5725 5724 5722 5720 5718 5717 5715 5713 5710 5708 5706 5704 5702 5700 5698 5696
5769 5767 5765 5762 5761 5759 5758 5755 5753 5752 5750 5748 5746 5744 5743 5742 5739 5738 5735 5733 5731 5730 5727 5724 5724 5724 5723 5721 5720 5718 5717 5715 5713 5712 5710 5708 5706 5703 5701 5699 5697 5695 5693
5767 5765 5763 5761 5759 5757 5756 5754 5752 5750 5749 5747 5745 5743 5741 5739 5737 5735 5733 5731 5729 5728 5724 5721 5720 5719 5718 5717 5715 5714 5713 5711 5710 5708 5707 5705 5703 5701 5698 5696 5694 5692 5690
5765 5763 5761 5759 5757 5755 5753 5751 5749 5747 5746 5745 5743 5741 5739 5737 5735 5733 5730 5728 5726 5723 5720 5718 5715 5714 5712 5711 5709 5708 5707 5706 5704 5704 5702 5700 5699 5697 5695 5692 5690 5688 5686
5763 5761 5758 5756 5754 5752 5750 5748 5746 5744 5742 5741 5739 5738 5736 5735 5733 5730 5728 5726 5723 5719 5716 5713 5711 5708 5707 5705 5704 5703 5701 5700 5699 5698 5696 5695 5693 5691 5689 5688 5686 5684 5682
5759 5756 5754 5752 5750 5749 5748 5745 5743 5740 5738 5735 5734 5733 5732 5731 5729 5726 5725 5722 5720 5716 5713 5710 5707 5704 5703 5701 5699 5697 5694 5692 5691 5692 5689 5688 5687 5685 5684 5682 5680 5679 5677
5754 5751 5749 5747 5745 5744 5742 5740 5738 5735 5732 5730 5728 5727 5727 5726 5723 5721 5720 5717 5715 5713 5711 5708 5705 5702 5700 5698 5695 5692 5689 5687 5685 5685 5681 5681 5680 5678 5678 5677 5674 5672 5670
5749 5746 5744 5742 5740 5739 5737 5735 5733 5730 5727 5725 5724 5722 5720 5719 5718 5715 5713 5711 5710 5708 5706 5703 5701 5700 5698 5695 5691 5688 5685 5681 5679 5677 5674 5672 5673 5671 5671 5670 5668 5665 5664
5743 5741 5739 5737 5735 5733 5732 5730 5727 5724 5721 5720 5719 5718 5716 5714 5712 5709 5706 5705 5703 5703 5702 5699 5696 5693 5691 5687 5684 5680 5677 5673 5672 5670 5667 5664 5665 5663 5663 5662 5661 5658 5656
5739 5737 5734 5732 5730 5728 5727 5725 5722 5719 5716 5714 5713 5712 5710 5708 5706 5703 5700 5698 5696 5695 5694 5692 5688 5686 5683 5680 5677 5674 5671 5666 5664 5663 5661 5657 5656 5653 5654 5654 5652 5650 5648